TimeEDT,TemperatureF,Dew PointF,Humidity,Sea Level PressureIn,VisibilityMPH,Wind Direction,Wind SpeedMPH,Gust SpeedMPH,PrecipitationIn,Events,Conditions,WindDirDegrees,DateUTC
12:54 AM,66.9,66.9,100,30.19,7.0,Calm,Calm,-,0.01,,Partly Cloudy,0,2012-10-04 04:54:00
1:54 AM,66.9,66.9,100,30.19,6.0,Calm,Calm,-,0.00,,Partly Cloudy,0,2012-10-04 05:54:00
2:54 AM,66.9,66.9,100,30.19,8.0,Calm,Calm,-,N/A,,Overcast,0,2012-10-04 06:54:00
3:54 AM,66.9,66.0,97,30.18,8.0,WSW,3.5,-,0.00,Rain,Light Rain,240,2012-10-04 07:54:00
4:54 AM,66.9,66.0,97,30.19,7.0,SSW,3.5,-,0.00,,Mostly Cloudy,210,2012-10-04 08:54:00
5:54 AM,66.0,66.0,100,30.20,6.0,Calm,Calm,-,0.00,Rain,Light Rain,0,2012-10-04 09:54:00
6:54 AM,66.0,66.0,100,30.22,7.0,SW,4.6,-,0.01,,Scattered Clouds,230,2012-10-04 10:54:00
7:54 AM,66.0,66.0,100,30.22,6.0,SW,3.5,-,0.00,,Partly Cloudy,230,2012-10-04 11:54:00
8:54 AM,66.9,66.0,97,30.23,6.0,WSW,3.5,-,N/A,,Clear,240,2012-10-04 12:54:00
9:54 AM,68.0,66.9,96,30.24,6.0,SW,4.6,-,N/A,,Clear,230,2012-10-04 13:54:00
10:54 AM,71.1,66.0,84,30.25,9.0,SW,5.8,-,N/A,,Clear,230,2012-10-04 14:54:00
11:54 AM,75.9,66.0,71,30.24,10.0,Variable,4.6,-,N/A,,Clear,0,2012-10-04 15:54:00
12:54 PM,75.9,64.0,67,30.22,10.0,NW,5.8,-,N/A,,Partly Cloudy,320,2012-10-04 16:54:00
1:54 PM,77.0,62.1,60,30.20,10.0,NNW,5.8,-,N/A,,Clear,340,2012-10-04 17:54:00
2:54 PM,79.0,62.1,56,30.18,10.0,Calm,Calm,-,N/A,,Partly Cloudy,0,2012-10-04 18:54:00
3:54 PM,79.0,60.1,52,30.17,10.0,West,5.8,-,N/A,,Clear,280,2012-10-04 19:54:00
4:54 PM,79.0,57.0,47,30.16,10.0,Calm,Calm,-,N/A,,Clear,0,2012-10-04 20:54:00
5:54 PM,78.1,59.0,52,30.17,10.0,West,5.8,-,N/A,,Clear,270,2012-10-04 21:54:00
6:54 PM,71.1,63.0,75,30.17,10.0,Calm,Calm,-,N/A,,Clear,0,2012-10-04 22:54:00
7:54 PM,64.9,63.0,93,30.17,10.0,Calm,Calm,-,N/A,,Clear,0,2012-10-04 23:54:00
8:54 PM,64.0,63.0,96,30.19,10.0,Calm,Calm,-,N/A,,Clear,0,2012-10-05 00:54:00
9:54 PM,62.1,61.0,96,30.20,10.0,Calm,Calm,-,N/A,,Clear,0,2012-10-05 01:54:00
10:54 PM,62.1,61.0,96,30.20,10.0,Calm,Calm,-,N/A,,Clear,0,2012-10-05 02:54:00
11:54 PM,60.1,60.1,100,30.21,9.0,Calm,Calm,-,N/A,,Clear,0,2012-10-05 03:54:00